Location: Bear Valley Community Church - Hurst
(32.8460°N, 97.1828°W)
Time: 23:33:50
(UTC+00:00)

Cosmos 1515 Rocket - Pass Details

Date: 08 July 2022
Orbit: 604 x 630 km, 82.5° (Epoch: 18 August)

Event Time Altitude Azimuth Distance (km) Brightness Sun altitude
Rises 08:20:25 0° 2° (N) 2,883 7.9 -29.1°
Reaches altitude 10° 08:22:45 10° 9° (N) 1,970 7.0 -28.9°
Enters shadow 08:26:29 41° 65° (ENE) 892 4.6 -28.5°
